Time,TemperatureF,DewpointF,PressureIn,WindDirection,WindDirectionDegrees,WindSpeedMPH,WindSpeedGustMPH,Humidity,HourlyPrecipIn,Conditions,Clouds,dailyrainin,SoftwareType,DateUTC
2013-11-14 00:01:00,33.5,35.0,25.85,SE,135,0.0,0.0,98,0.00,,,0.00,Rainwise IP-100,2013-11-14 08:01:00,
2013-11-14 00:06:00,33.4,32.0,25.86,NNW,337,2.3,2.3,97,0.00,,,0.00,Rainwise IP-100,2013-11-14 08:06:00,
2013-11-14 00:11:00,33.3,32.0,25.85,NNW,337,1.2,2.0,97,0.00,,,0.00,Rainwise IP-100,2013-11-14 08:11:00,
2013-11-14 00:16:00,33.3,33.0,25.85,NNW,337,1.9,2.0,98,0.00,,,0.00,Rainwise IP-100,2013-11-14 08:16:00,
2013-11-14 00:21:00,33.2,33.0,25.85,NNW,337,0.0,2.0,98,0.00,,,0.00,Rainwise IP-100,2013-11-14 08:21:00,
2013-11-14 00:26:00,33.1,32.0,25.85,NNW,337,0.0,0.0,97,0.00,,,0.00,Rainwise IP-100,2013-11-14 08:26:00,
2013-11-14 00:31:00,33.1,32.0,25.85,NNW,337,0.0,0.0,97,0.00,,,0.00,Rainwise IP-100,2013-11-14 08:31:00,
2013-11-14 00:36:00,33.0,33.0,25.84,NNW,337,0.0,0.0,98,0.00,,,0.00,Rainwise IP-100,2013-11-14 08:36:00,
2013-11-14 00:41:00,33.0,32.0,25.84,NNW,337,0.0,0.0,97,0.00,,,0.00,Rainwise IP-100,2013-11-14 08:41:00,
2013-11-14 00:46:00,32.9,32.0,25.84,NNW,337,0.0,0.0,97,0.00,,,0.00,Rainwise IP-100,2013-11-14 08:46:00,
2013-11-14 00:51:00,32.9,32.0,25.83,NNW,337,0.0,0.0,97,0.00,,,0.00,Rainwise IP-100,2013-11-14 08:51:00,
2013-11-14 00:56:00,32.9,33.0,25.82,NNW,337,0.0,0.0,98,0.00,,,0.00,Rainwise IP-100,2013-11-14 08:56:00,
2013-11-14 01:01:00,32.9,32.0,25.83,NNW,337,0.0,0.0,97,0.00,,,0.00,Rainwise IP-100,2013-11-14 09:01:00,
2013-11-14 01:06:00,32.9,32.0,25.82,NNW,337,0.0,0.0,97,0.00,,,0.00,Rainwise IP-100,2013-11-14 09:06:00,
2013-11-14 01:11:00,32.9,32.0,25.82,NNW,337,0.0,0.0,97,0.00,,,0.00,Rainwise IP-100,2013-11-14 09:11:00,
2013-11-14 01:16:00,32.8,32.0,25.82,NNW,337,0.0,0.0,97,0.00,,,0.00,Rainwise IP-100,2013-11-14 09:16:00,
2013-11-14 01:21:00,32.7,32.0,25.82,NNW,337,1.6,0.0,97,0.00,,,0.00,Rainwise IP-100,2013-11-14 09:21:00,
2013-11-14 01:26:00,32.7,32.0,25.83,NNW,337,0.0,1.0,96,0.00,,,0.00,Rainwise IP-100,2013-11-14 09:26:00,
2013-11-14 01:31:00,32.6,32.0,25.82,East,90,0.0,3.0,96,0.00,,,0.00,Rainwise IP-100,2013-11-14 09:31:00,
2013-11-14 01:36:00,32.5,32.0,25.82,East,90,0.0,0.0,96,0.00,,,0.00,Rainwise IP-100,2013-11-14 09:36:00,
2013-11-14 01:41:00,32.5,32.0,25.82,East,90,0.0,0.0,96,0.00,,,0.00,Rainwise IP-100,2013-11-14 09:41:00,
2013-11-14 01:46:00,32.5,32.0,25.82,East,90,0.0,0.0,97,0.00,,,0.00,Rainwise IP-100,2013-11-14 09:46:00,
2013-11-14 01:51:00,32.6,32.0,25.82,East,90,0.0,0.0,97,0.00,,,0.00,Rainwise IP-100,2013-11-14 09:51:00,
2013-11-14 01:56:00,32.6,33.0,25.82,East,90,0.0,0.0,98,0.00,,,0.00,Rainwise IP-100,2013-11-14 09:56:00,
2013-11-14 02:01:00,32.6,33.0,25.82,East,90,0.0,0.0,98,0.00,,,0.00,Rainwise IP-100,2013-11-14 10:01:00,
2013-11-14 02:06:00,32.7,33.0,25.82,East,90,0.0,0.0,98,0.00,,,0.00,Rainwise IP-100,2013-11-14 10:06:00,
2013-11-14 02:11:00,32.7,33.0,25.81,South,180,2.3,0.0,98,0.00,,,0.00,Rainwise IP-100,2013-11-14 10:11:00,
2013-11-14 02:16:00,32.5,32.0,25.81,South,180,0.0,2.0,97,0.00,,,0.00,Rainwise IP-100,2013-11-14 10:16:00,
2013-11-14 02:21:00,32.4,31.0,25.81,South,180,0.0,0.0,97,0.00,,,0.00,Rainwise IP-100,2013-11-14 10:21:00,
2013-11-14 02:26:00,32.5,33.0,25.81,SE,135,0.0,0.0,98,0.00,,,0.00,Rainwise IP-100,2013-11-14 10:26:00,
2013-11-14 02:31:00,32.5,33.0,25.81,SE,135,0.0,0.0,98,0.00,,,0.00,Rainwise IP-100,2013-11-14 10:31:00,
2013-11-14 02:36:00,32.4,32.0,25.81,ESE,112,0.0,0.0,98,0.00,,,0.00,Rainwise IP-100,2013-11-14 10:36:00,
2013-11-14 02:41:00,32.2,32.0,25.80,ESE,112,0.0,0.0,98,0.00,,,0.00,Rainwise IP-100,2013-11-14 10:41:00,
2013-11-14 02:46:00,32.1,32.0,25.80,ESE,112,0.0,0.0,98,0.00,,,0.00,Rainwise IP-100,2013-11-14 10:46:00,
2013-11-14 02:51:00,31.9,32.0,25.80,ESE,112,0.0,0.0,98,0.00,,,0.00,Rainwise IP-100,2013-11-14 10:51:00,
2013-11-14 02:56:00,31.8,32.0,25.79,East,90,0.0,1.0,98,0.00,,,0.00,Rainwise IP-100,2013-11-14 10:56:00,
2013-11-14 03:01:00,31.6,32.0,25.78,SSW,202,3.3,4.0,99,0.00,,,0.00,Rainwise IP-100,2013-11-14 11:01:00,
2013-11-14 03:06:00,31.5,32.0,25.78,SE,135,2.3,4.0,99,0.00,,,0.00,Rainwise IP-100,2013-11-14 11:06:00,
2013-11-14 03:11:00,31.5,32.0,25.77,SE,135,2.3,3.0,99,0.00,,,0.00,Rainwise IP-100,2013-11-14 11:11:00,
2013-11-14 03:16:00,31.6,32.0,25.77,SE,135,0.0,2.0,99,0.00,,,0.00,Rainwise IP-100,2013-11-14 11:16:00,
2013-11-14 03:21:00,31.5,32.0,25.76,SE,135,0.0,0.0,99,0.00,,,0.00,Rainwise IP-100,2013-11-14 11:21:00,
2013-11-14 03:26:00,31.6,32.0,25.76,SE,135,0.0,1.0,99,0.00,,,0.00,Rainwise IP-100,2013-11-14 11:26:00,
2013-11-14 03:31:00,31.6,32.0,25.76,SE,135,0.0,0.0,99,0.00,,,0.00,Rainwise IP-100,2013-11-14 11:31:00,
2013-11-14 03:36:00,31.4,31.0,25.75,SE,135,0.0,3.0,99,0.00,,,0.00,Rainwise IP-100,2013-11-14 11:36:00,
2013-11-14 03:41:00,31.3,31.0,25.74,SE,135,0.0,2.0,99,0.00,,,0.00,Rainwise IP-100,2013-11-14 11:41:00,
2013-11-14 03:46:00,31.3,31.0,25.75,SSE,157,0.0,1.0,100,0.00,,,0.00,Rainwise IP-100,2013-11-14 11:46:00,
2013-11-14 03:51:00,31.4,31.0,25.75,East,90,0.0,1.0,99,0.00,,,0.00,Rainwise IP-100,2013-11-14 11:51:00,
2013-11-14 03:56:00,31.4,31.0,25.75,ENE,67,0.0,0.0,99,0.00,,,0.00,Rainwise IP-100,2013-11-14 11:56:00,
2013-11-14 04:01:00,31.3,31.0,25.75,ENE,67,0.0,0.0,99,0.00,,,0.00,Rainwise IP-100,2013-11-14 12:01:00,
2013-11-14 04:06:00,31.2,31.0,25.74,ENE,67,0.0,0.0,99,0.00,,,0.00,Rainwise IP-100,2013-11-14 12:06:00,
2013-11-14 04:11:00,31.1,31.0,25.74,ENE,67,0.0,0.0,99,0.00,,,0.00,Rainwise IP-100,2013-11-14 12:11:00,
2013-11-14 04:16:00,30.9,31.0,25.74,ENE,67,0.0,0.0,99,0.00,,,0.00,Rainwise IP-100,2013-11-14 12:16:00,
2013-11-14 04:21:00,30.8,31.0,25.74,ENE,67,0.0,0.0,99,0.00,,,0.00,Rainwise IP-100,2013-11-14 12:21:00,
2013-11-14 04:26:00,30.7,31.0,25.74,ENE,67,0.0,0.0,100,0.00,,,0.00,Rainwise IP-100,2013-11-14 12:26:00,
2013-11-14 04:31:00,30.6,31.0,25.74,ENE,67,0.0,0.0,100,0.00,,,0.00,Rainwise IP-100,2013-11-14 12:31:00,
2013-11-14 04:36:00,30.6,31.0,25.73,ENE,67,0.0,0.0,100,0.00,,,0.00,Rainwise IP-100,2013-11-14 12:36:00,
2013-11-14 04:41:00,30.5,31.0,25.74,ENE,67,0.0,0.0,100,0.00,,,0.00,Rainwise IP-100,2013-11-14 12:41:00,
2013-11-14 04:46:00,30.5,31.0,25.74,ENE,67,0.0,0.0,100,0.00,,,0.00,Rainwise IP-100,2013-11-14 12:46:00,
2013-11-14 04:51:00,30.4,31.0,25.74,ENE,67,0.0,0.0,100,0.00,,,0.00,Rainwise IP-100,2013-11-14 12:51:00,
2013-11-14 04:56:00,30.4,31.0,25.74,ENE,67,0.0,0.0,100,0.00,,,0.00,Rainwise IP-100,2013-11-14 12:56:00,
2013-11-14 05:01:00,30.4,31.0,25.74,ENE,67,0.0,0.0,100,0.00,,,0.00,Rainwise IP-100,2013-11-14 13:01:00,
2013-11-14 05:06:00,30.4,31.0,25.74,ENE,67,0.0,0.0,100,0.00,,,0.00,Rainwise IP-100,2013-11-14 13:06:00,
2013-11-14 05:11:00,30.4,31.0,25.73,ENE,67,0.0,0.0,100,0.00,,,0.00,Rainwise IP-100,2013-11-14 13:11:00,
2013-11-14 05:16:00,30.5,31.0,25.73,ENE,67,0.0,0.0,100,0.00,,,0.00,Rainwise IP-100,2013-11-14 13:16:00,
2013-11-14 05:21:00,30.5,31.0,25.73,ENE,67,0.0,0.0,100,0.00,,,0.00,Rainwise IP-100,2013-11-14 13:21:00,
2013-11-14 05:26:00,30.5,31.0,25.73,ENE,67,0.0,0.0,100,0.00,,,0.00,Rainwise IP-100,2013-11-14 13:26:00,
2013-11-14 05:31:00,30.5,31.0,25.73,NNE,22,1.6,0.0,100,0.00,,,0.00,Rainwise IP-100,2013-11-14 13:31:00,
2013-11-14 05:36:00,30.4,31.0,25.73,NNE,22,0.0,3.0,100,0.00,,,0.00,Rainwise IP-100,2013-11-14 13:36:00,
2013-11-14 05:41:00,30.3,31.0,25.73,NNE,22,0.0,0.0,100,0.00,,,0.00,Rainwise IP-100,2013-11-14 13:41:00,
2013-11-14 05:46:00,30.3,31.0,25.73,NNE,22,0.0,0.0,100,0.00,,,0.00,Rainwise IP-100,2013-11-14 13:46:00,
2013-11-14 05:51:00,30.4,31.0,25.73,NNE,22,0.0,0.0,100,0.00,,,0.00,Rainwise IP-100,2013-11-14 13:51:00,
2013-11-14 05:56:00,30.4,31.0,25.73,NNE,22,0.0,0.0,100,0.00,,,0.00,Rainwise IP-100,2013-11-14 13:56:00,
2013-11-14 06:01:00,30.4,31.0,25.72,NNE,22,1.4,1.4,100,0.00,,,0.00,Rainwise IP-100,2013-11-14 14:01:00,
2013-11-14 06:06:00,30.4,31.0,25.73,North,360,3.5,4.0,100,0.00,,,0.00,Rainwise IP-100,2013-11-14 14:06:00,
2013-11-14 06:11:00,30.5,31.0,25.72,NNE,22,3.5,5.0,100,0.00,,,0.00,Rainwise IP-100,2013-11-14 14:11:00,
2013-11-14 06:16:00,30.8,31.0,25.72,NNW,337,0.0,8.0,100,0.00,,,0.00,Rainwise IP-100,2013-11-14 14:16:00,
2013-11-14 06:21:00,31.1,31.0,25.72,NNE,22,1.9,2.0,100,0.00,,,0.00,Rainwise IP-100,2013-11-14 14:21:00,
2013-11-14 06:26:00,31.3,31.0,25.72,NNW,337,2.3,5.0,100,0.00,,,0.00,Rainwise IP-100,2013-11-14 14:26:00,
2013-11-14 06:31:00,31.5,32.0,25.72,NNE,22,4.2,8.0,100,0.00,,,0.00,Rainwise IP-100,2013-11-14 14:31:00,
2013-11-14 06:36:00,31.6,32.0,25.73,North,360,3.3,7.0,100,0.00,,,0.00,Rainwise IP-100,2013-11-14 14:36:00,
2013-11-14 06:41:00,31.7,32.0,25.72,North,360,6.1,7.0,100,0.00,,,0.00,Rainwise IP-100,2013-11-14 14:41:00,
2013-11-14 06:46:00,31.6,32.0,25.72,NNE,22,0.0,10.0,100,0.00,,,0.00,Rainwise IP-100,2013-11-14 14:46:00,
2013-11-14 06:47:00,31.6,32.0,25.72,NNE,22,0.0,10.0,100,0.00,,,0.00,Rainwise IP-100,2013-11-14 14:47:00,
2013-11-14 06:52:00,31.6,32.0,25.72,North,360,4.4,5.0,100,0.00,,,0.00,Rainwise IP-100,2013-11-14 14:52:00,
2013-11-14 06:57:00,31.6,32.0,25.71,NW,315,0.0,6.0,100,0.00,,,0.00,Rainwise IP-100,2013-11-14 14:57:00,
2013-11-14 07:02:00,31.5,32.0,25.71,NNE,22,0.0,5.0,100,0.00,,,0.00,Rainwise IP-100,2013-11-14 15:02:00,
2013-11-14 07:07:00,31.6,32.0,25.71,East,90,0.0,6.0,100,0.00,,,0.00,Rainwise IP-100,2013-11-14 15:07:00,
2013-11-14 07:12:00,31.7,32.0,25.71,NNE,22,1.4,5.0,100,0.00,,,0.00,Rainwise IP-100,2013-11-14 15:12:00,
2013-11-14 07:17:00,31.7,32.0,25.71,ENE,67,1.6,6.0,100,0.00,,,0.00,Rainwise IP-100,2013-11-14 15:17:00,
2013-11-14 07:22:00,31.8,32.0,25.72,NNW,337,2.8,7.0,100,0.00,,,0.00,Rainwise IP-100,2013-11-14 15:22:00,
2013-11-14 07:27:00,31.8,32.0,25.71,NNE,22,0.0,11.0,100,0.00,,,0.00,Rainwise IP-100,2013-11-14 15:27:00,
2013-11-14 07:32:00,31.8,32.0,25.71,North,360,3.3,6.0,100,0.00,,,0.00,Rainwise IP-100,2013-11-14 15:32:00,
2013-11-14 07:37:00,31.8,32.0,25.71,NNE,22,4.4,7.0,100,0.00,,,0.00,Rainwise IP-100,2013-11-14 15:37:00,
2013-11-14 07:42:00,31.8,32.0,25.71,NNE,22,4.7,8.0,100,0.00,,,0.00,Rainwise IP-100,2013-11-14 15:42:00,
2013-11-14 07:47:00,31.7,32.0,25.71,NNW,337,3.7,7.0,100,0.00,,,0.00,Rainwise IP-100,2013-11-14 15:47:00,
2013-11-14 07:52:00,31.7,32.0,25.71,NNW,337,5.6,7.0,100,0.00,,,0.00,Rainwise IP-100,2013-11-14 15:52:00,
2013-11-14 07:57:00,31.8,32.0,25.71,NNE,22,3.7,7.0,100,0.00,,,0.00,Rainwise IP-100,2013-11-14 15:57:00,
2013-11-14 08:02:00,31.8,32.0,25.71,NNW,337,4.2,6.0,100,0.00,,,0.00,Rainwise IP-100,2013-11-14 16:02:00,
2013-11-14 08:07:00,31.9,32.0,25.71,NNW,337,2.6,7.0,100,0.00,,,0.00,Rainwise IP-100,2013-11-14 16:07:00,
2013-11-14 08:12:00,31.9,32.0,25.71,NNE,22,1.6,6.0,100,0.00,,,0.00,Rainwise IP-100,2013-11-14 16:12:00,
2013-11-14 08:17:00,32.0,32.0,25.71,North,360,4.0,6.0,100,0.00,,,0.00,Rainwise IP-100,2013-11-14 16:17:00,
2013-11-14 08:22:00,32.0,32.0,25.71,North,360,0.0,7.0,100,0.00,,,0.00,Rainwise IP-100,2013-11-14 16:22:00,
2013-11-14 08:27:00,32.1,32.0,25.71,NNW,337,2.8,5.0,100,0.00,,,0.00,Rainwise IP-100,2013-11-14 16:27:00,
2013-11-14 08:32:00,32.1,32.0,25.71,North,360,2.1,4.0,100,0.00,,,0.00,Rainwise IP-100,2013-11-14 16:32:00,
2013-11-14 08:37:00,32.1,32.0,25.72,NNW,337,3.3,4.0,99,0.00,,,0.00,Rainwise IP-100,2013-11-14 16:37:00,
2013-11-14 08:42:00,32.2,32.0,25.71,North,360,0.0,4.0,99,0.00,,,0.00,Rainwise IP-100,2013-11-14 16:42:00,
2013-11-14 08:47:00,32.3,32.0,25.71,ESE,112,0.0,6.0,99,0.00,,,0.00,Rainwise IP-100,2013-11-14 16:47:00,
2013-11-14 08:52:00,32.3,32.0,25.71,NNW,337,2.8,6.0,99,0.00,,,0.00,Rainwise IP-100,2013-11-14 16:52:00,
2013-11-14 08:57:00,32.4,32.0,25.71,NNW,337,4.2,6.0,99,0.00,,,0.00,Rainwise IP-100,2013-11-14 16:57:00,
2013-11-14 09:02:00,32.4,32.0,25.71,North,360,1.9,5.0,99,0.00,,,0.00,Rainwise IP-100,2013-11-14 17:02:00,
2013-11-14 09:07:00,32.5,33.0,25.71,North,360,2.3,3.0,100,0.00,,,0.00,Rainwise IP-100,2013-11-14 17:07:00,
2013-11-14 09:12:00,32.6,33.0,25.71,North,360,4.2,4.2,100,0.00,,,0.00,Rainwise IP-100,2013-11-14 17:12:00,
2013-11-14 09:17:00,32.6,33.0,25.71,North,360,3.7,6.0,99,0.00,,,0.00,Rainwise IP-100,2013-11-14 17:17:00,
2013-11-14 09:22:00,32.7,33.0,25.71,North,360,1.6,6.0,99,0.00,,,0.00,Rainwise IP-100,2013-11-14 17:22:00,
2013-11-14 09:27:00,32.9,33.0,25.71,North,360,4.0,6.0,99,0.00,,,0.00,Rainwise IP-100,2013-11-14 17:27:00,
2013-11-14 09:32:00,33.0,33.0,25.71,NNW,337,3.5,5.0,99,0.00,,,0.00,Rainwise IP-100,2013-11-14 17:32:00,
2013-11-14 09:37:00,33.2,33.0,25.71,NNW,337,4.7,6.0,98,0.00,,,0.00,Rainwise IP-100,2013-11-14 17:37:00,
2013-11-14 09:42:00,33.2,33.0,25.71,NNE,22,0.0,7.0,98,0.00,,,0.00,Rainwise IP-100,2013-11-14 17:42:00,
2013-11-14 09:47:00,33.2,33.0,25.70,NNE,22,1.2,7.0,98,0.00,,,0.00,Rainwise IP-100,2013-11-14 17:47:00,
2013-11-14 09:52:00,33.3,33.0,25.70,NNW,337,3.5,4.0,98,0.00,,,0.00,Rainwise IP-100,2013-11-14 17:52:00,
2013-11-14 09:57:00,33.4,33.0,25.70,NNE,22,1.9,4.0,98,0.00,,,0.00,Rainwise IP-100,2013-11-14 17:57:00,
2013-11-14 10:02:00,33.3,33.0,25.70,NNW,337,1.9,4.0,98,0.00,,,0.00,Rainwise IP-100,2013-11-14 18:02:00,
2013-11-14 10:07:00,33.3,33.0,25.70,NNW,337,3.3,5.0,98,0.00,,,0.00,Rainwise IP-100,2013-11-14 18:07:00,
2013-11-14 10:12:00,33.2,33.0,25.70,NNE,22,1.4,5.0,98,0.00,,,0.00,Rainwise IP-100,2013-11-14 18:12:00,
2013-11-14 10:17:00,33.1,33.0,25.70,NNE,22,4.0,4.0,98,0.00,,,0.00,Rainwise IP-100,2013-11-14 18:17:00,
2013-11-14 10:22:00,33.2,33.0,25.70,North,360,3.7,5.0,98,0.00,,,0.00,Rainwise IP-100,2013-11-14 18:22:00,
2013-11-14 10:27:00,33.2,33.0,25.71,NNW,337,4.2,6.0,98,0.00,,,0.00,Rainwise IP-100,2013-11-14 18:27:00,
2013-11-14 10:32:00,33.3,33.0,25.71,NNW,337,3.7,7.0,98,0.00,,,0.00,Rainwise IP-100,2013-11-14 18:32:00,
2013-11-14 10:37:00,33.3,32.0,25.70,NNW,337,4.0,7.0,97,0.00,,,0.00,Rainwise IP-100,2013-11-14 18:37:00,
2013-11-14 10:42:00,33.4,32.0,25.70,NNE,22,4.2,7.0,97,0.00,,,0.00,Rainwise IP-100,2013-11-14 18:42:00,
2013-11-14 10:47:00,33.4,32.0,25.70,North,360,3.0,7.0,96,0.00,,,0.00,Rainwise IP-100,2013-11-14 18:47:00,
2013-11-14 10:52:00,33.4,32.0,25.70,NNW,337,4.0,10.0,96,0.00,,,0.00,Rainwise IP-100,2013-11-14 18:52:00,
2013-11-14 10:57:00,33.5,33.0,25.70,NNW,337,2.6,6.0,96,0.00,,,0.00,Rainwise IP-100,2013-11-14 18:57:00,
2013-11-14 11:02:00,33.5,33.0,25.70,NNW,337,2.8,6.0,96,0.00,,,0.00,Rainwise IP-100,2013-11-14 19:02:00,
2013-11-14 11:07:00,33.6,33.0,25.69,NNW,337,1.6,4.0,96,0.00,,,0.00,Rainwise IP-100,2013-11-14 19:07:00,
2013-11-14 11:12:00,33.7,33.0,25.69,NNW,337,3.0,4.0,96,0.00,,,0.00,Rainwise IP-100,2013-11-14 19:12:00,
2013-11-14 11:17:00,33.8,33.0,25.69,North,360,1.6,6.0,95,0.00,,,0.00,Rainwise IP-100,2013-11-14 19:17:00,
2013-11-14 11:22:00,33.9,33.0,25.69,NNE,22,1.9,5.0,95,0.00,,,0.00,Rainwise IP-100,2013-11-14 19:22:00,
2013-11-14 11:27:00,34.0,33.0,25.69,NNW,337,5.1,6.0,95,0.00,,,0.00,Rainwise IP-100,2013-11-14 19:27:00,
2013-11-14 11:32:00,34.0,33.0,25.69,NNW,337,4.0,6.0,96,0.00,,,0.00,Rainwise IP-100,2013-11-14 19:32:00,
2013-11-14 11:37:00,34.0,33.0,25.68,North,360,2.8,7.0,96,0.00,,,0.00,Rainwise IP-100,2013-11-14 19:37:00,
2013-11-14 11:42:00,33.9,33.0,25.68,North,360,3.0,7.0,96,0.00,,,0.00,Rainwise IP-100,2013-11-14 19:42:00,
2013-11-14 11:47:00,33.8,33.0,25.68,NNW,337,3.0,6.0,97,0.00,,,0.00,Rainwise IP-100,2013-11-14 19:47:00,
2013-11-14 11:52:00,33.8,35.0,25.68,NNE,22,5.8,6.0,98,0.00,,,0.00,Rainwise IP-100,2013-11-14 19:52:00,
2013-11-14 11:57:00,33.8,35.0,25.67,NNW,337,4.9,6.0,98,0.00,,,0.00,Rainwise IP-100,2013-11-14 19:57:00,
2013-11-14 12:02:00,33.8,35.0,25.67,NNW,337,6.3,8.0,98,0.00,,,0.00,Rainwise IP-100,2013-11-14 20:02:00,
2013-11-14 12:07:00,33.8,35.0,25.67,NNW,337,4.4,9.0,98,0.00,,,0.00,Rainwise IP-100,2013-11-14 20:07:00,
2013-11-14 12:12:00,33.8,35.0,25.67,North,360,2.3,7.0,99,0.00,,,0.00,Rainwise IP-100,2013-11-14 20:12:00,
2013-11-14 12:17:00,33.8,35.0,25.67,NNW,337,5.4,7.0,99,0.00,,,0.00,Rainwise IP-100,2013-11-14 20:17:00,
2013-11-14 12:22:00,33.8,35.0,25.67,North,360,3.3,8.0,99,0.00,,,0.00,Rainwise IP-100,2013-11-14 20:22:00,
2013-11-14 12:27:00,33.7,35.0,25.67,NNW,337,4.4,7.0,99,0.00,,,0.00,Rainwise IP-100,2013-11-14 20:27:00,
2013-11-14 12:32:00,33.7,35.0,25.67,NNE,22,7.2,7.2,99,0.00,,,0.00,Rainwise IP-100,2013-11-14 20:32:00,
2013-11-14 12:37:00,33.8,35.0,25.67,NNW,337,5.4,7.0,99,0.00,,,0.00,Rainwise IP-100,2013-11-14 20:37:00,
2013-11-14 12:42:00,33.8,35.0,25.67,North,360,4.0,6.0,99,0.00,,,0.00,Rainwise IP-100,2013-11-14 20:42:00,
2013-11-14 12:47:00,33.8,35.0,25.67,NNW,337,5.8,7.0,98,0.00,,,0.00,Rainwise IP-100,2013-11-14 20:47:00,
2013-11-14 12:52:00,33.8,35.0,25.67,NNE,22,5.8,8.0,98,0.00,,,0.00,Rainwise IP-100,2013-11-14 20:52:00,
2013-11-14 12:57:00,34.0,35.0,25.66,NNW,337,4.7,6.0,98,0.00,,,0.00,Rainwise IP-100,2013-11-14 20:57:00,
2013-11-14 13:02:00,34.1,35.0,25.66,NNW,337,5.1,9.0,98,0.00,,,0.00,Rainwise IP-100,2013-11-14 21:02:00,
2013-11-14 13:07:00,34.1,35.0,25.66,NNW,337,4.4,8.0,98,0.00,,,0.00,Rainwise IP-100,2013-11-14 21:07:00,
2013-11-14 13:12:00,34.2,35.0,25.66,North,360,2.8,10.0,98,0.00,,,0.00,Rainwise IP-100,2013-11-14 21:12:00,
2013-11-14 13:17:00,34.2,35.0,25.66,NNW,337,4.7,7.0,98,0.00,,,0.00,Rainwise IP-100,2013-11-14 21:17:00,
2013-11-14 13:22:00,34.3,35.0,25.66,NNW,337,6.8,9.0,98,0.00,,,0.00,Rainwise IP-100,2013-11-14 21:22:00,
2013-11-14 13:27:00,34.3,33.0,25.66,NNE,22,3.5,8.0,97,0.00,,,0.00,Rainwise IP-100,2013-11-14 21:27:00,
2013-11-14 13:32:00,34.4,33.0,25.66,NNW,337,7.5,9.0,97,0.00,,,0.00,Rainwise IP-100,2013-11-14 21:32:00,
2013-11-14 13:37:00,34.4,33.0,25.66,NNE,22,5.6,9.0,97,0.00,,,0.00,Rainwise IP-100,2013-11-14 21:37:00,
2013-11-14 13:42:00,34.2,33.0,25.66,NNW,337,7.5,11.0,97,0.00,,,0.00,Rainwise IP-100,2013-11-14 21:42:00,
2013-11-14 13:47:00,33.9,35.0,25.66,NNW,337,5.8,9.0,98,0.00,,,0.00,Rainwise IP-100,2013-11-14 21:47:00,
2013-11-14 13:52:00,33.7,35.0,25.66,NNW,337,2.3,9.0,98,0.00,,,0.00,Rainwise IP-100,2013-11-14 21:52:00,
2013-11-14 13:57:00,33.6,35.0,25.66,NNW,337,5.6,9.0,99,0.00,,,0.00,Rainwise IP-100,2013-11-14 21:57:00,
2013-11-14 14:02:00,33.4,33.0,25.66,NNW,337,7.2,9.0,99,0.00,,,0.00,Rainwise IP-100,2013-11-14 22:02:00,
2013-11-14 14:07:00,33.2,33.0,25.66,NNW,337,3.5,11.0,99,0.00,,,0.00,Rainwise IP-100,2013-11-14 22:07:00,
2013-11-14 14:12:00,33.1,33.0,25.65,NNE,22,2.1,10.0,99,0.00,,,0.00,Rainwise IP-100,2013-11-14 22:12:00,
2013-11-14 14:17:00,33.0,33.0,25.65,NNW,337,5.4,8.0,100,0.00,,,0.00,Rainwise IP-100,2013-11-14 22:17:00,
2013-11-14 14:22:00,33.1,33.0,25.65,North,360,2.6,7.0,99,0.00,,,0.00,Rainwise IP-100,2013-11-14 22:22:00,
2013-11-14 14:27:00,33.1,33.0,25.66,NNE,22,4.7,7.0,99,0.00,,,0.00,Rainwise IP-100,2013-11-14 22:27:00,
2013-11-14 14:32:00,33.1,33.0,25.66,North,360,4.2,8.0,99,0.00,,,0.00,Rainwise IP-100,2013-11-14 22:32:00,
2013-11-14 14:37:00,33.0,33.0,25.65,NNE,22,3.5,9.0,99,0.00,,,0.00,Rainwise IP-100,2013-11-14 22:37:00,
2013-11-14 14:42:00,33.0,33.0,25.65,NNW,337,4.9,12.0,99,0.00,,,0.00,Rainwise IP-100,2013-11-14 22:42:00,
2013-11-14 14:47:00,33.0,33.0,25.65,NNW,337,4.0,8.0,99,0.00,,,0.00,Rainwise IP-100,2013-11-14 22:47:00,
2013-11-14 14:52:00,33.0,33.0,25.65,NNE,22,4.2,7.0,99,0.00,,,0.00,Rainwise IP-100,2013-11-14 22:52:00,
2013-11-14 14:57:00,32.9,33.0,25.65,NNE,22,3.0,9.0,99,0.00,,,0.00,Rainwise IP-100,2013-11-14 22:57:00,
2013-11-14 15:02:00,32.8,33.0,25.65,NNW,337,4.0,9.0,99,0.00,,,0.00,Rainwise IP-100,2013-11-14 23:02:00,
2013-11-14 15:07:00,32.8,33.0,25.65,NNW,337,4.7,7.0,99,0.00,,,0.00,Rainwise IP-100,2013-11-14 23:07:00,
2013-11-14 15:12:00,32.6,33.0,25.65,NNW,337,7.2,11.0,99,0.00,,,0.00,Rainwise IP-100,2013-11-14 23:12:00,
2013-11-14 15:17:00,32.6,33.0,25.66,NNW,337,5.6,8.0,99,0.00,,,0.00,Rainwise IP-100,2013-11-14 23:17:00,
2013-11-14 15:22:00,32.5,33.0,25.66,NNE,22,1.2,8.0,99,0.00,,,0.00,Rainwise IP-100,2013-11-14 23:22:00,
2013-11-14 15:27:00,32.6,33.0,25.65,NNW,337,4.0,4.0,99,0.00,,,0.00,Rainwise IP-100,2013-11-14 23:27:00,
2013-11-14 15:32:00,32.6,33.0,25.66,NNW,337,2.3,5.0,99,0.00,,,0.00,Rainwise IP-100,2013-11-14 23:32:00,
2013-11-14 15:37:00,32.6,33.0,25.66,NNW,337,2.6,8.0,100,0.00,,,0.00,Rainwise IP-100,2013-11-14 23:37:00,
2013-11-14 15:42:00,32.6,33.0,25.65,NNW,337,3.7,8.0,100,0.00,,,0.00,Rainwise IP-100,2013-11-14 23:42:00,
2013-11-14 15:47:00,32.6,33.0,25.65,NNW,337,4.0,6.0,100,0.00,,,0.00,Rainwise IP-100,2013-11-14 23:47:00,
2013-11-14 15:52:00,32.6,33.0,25.66,North,360,1.2,4.0,100,0.00,,,0.00,Rainwise IP-100,2013-11-14 23:52:00,
2013-11-14 15:57:00,32.6,33.0,25.65,NNW,337,2.3,3.0,100,0.00,,,0.00,Rainwise IP-100,2013-11-14 23:57:00,
2013-11-14 16:02:00,32.5,33.0,25.65,NNW,337,2.1,4.0,100,0.00,,,0.00,Rainwise IP-100,2013-11-15 00:02:00,
2013-11-14 16:07:00,32.4,32.0,25.65,North,360,3.7,4.0,100,0.00,,,0.00,Rainwise IP-100,2013-11-15 00:07:00,
2013-11-14 16:12:00,32.3,32.0,25.65,NNW,337,1.2,5.0,100,0.00,,,0.00,Rainwise IP-100,2013-11-15 00:12:00,
2013-11-14 16:17:00,32.2,32.0,25.65,NNW,337,2.1,6.0,100,0.00,,,0.00,Rainwise IP-100,2013-11-15 00:17:00,
2013-11-14 16:22:00,32.2,32.0,25.65,NNW,337,6.5,11.0,100,0.00,,,0.00,Rainwise IP-100,2013-11-15 00:22:00,
2013-11-14 16:27:00,32.1,32.0,25.65,North,360,4.7,11.0,100,0.00,,,0.00,Rainwise IP-100,2013-11-15 00:27:00,
2013-11-14 16:32:00,32.0,32.0,25.65,NNE,22,4.9,8.0,100,0.00,,,0.00,Rainwise IP-100,2013-11-15 00:32:00,
2013-11-14 16:37:00,31.9,32.0,25.65,NNE,22,6.8,9.0,100,0.00,,,0.00,Rainwise IP-100,2013-11-15 00:37:00,
2013-11-14 16:42:00,31.8,32.0,25.65,NNE,22,3.7,8.0,100,0.00,,,0.00,Rainwise IP-100,2013-11-15 00:42:00,
2013-11-14 16:47:00,31.9,32.0,25.65,NNW,337,8.4,8.4,100,0.00,,,0.00,Rainwise IP-100,2013-11-15 00:47:00,
2013-11-14 16:52:00,31.8,32.0,25.65,NNE,22,5.8,9.0,100,0.00,,,0.00,Rainwise IP-100,2013-11-15 00:52:00,
2013-11-14 16:57:00,31.7,32.0,25.65,NNW,337,4.9,11.0,100,0.00,,,0.00,Rainwise IP-100,2013-11-15 00:57:00,
2013-11-14 17:02:00,31.6,32.0,25.65,NNW,337,4.4,8.0,100,0.00,,,0.00,Rainwise IP-100,2013-11-15 01:02:00,
2013-11-14 17:07:00,31.5,32.0,25.65,NNE,22,3.7,8.0,100,0.00,,,0.00,Rainwise IP-100,2013-11-15 01:07:00,
2013-11-14 17:12:00,31.5,32.0,25.65,NNE,22,4.2,7.0,100,0.00,,,0.00,Rainwise IP-100,2013-11-15 01:12:00,
2013-11-14 17:17:00,31.5,32.0,25.65,North,360,3.3,6.0,100,0.00,,,0.00,Rainwise IP-100,2013-11-15 01:17:00,
2013-11-14 17:22:00,31.5,32.0,25.65,NNW,337,1.9,5.0,100,0.00,,,0.00,Rainwise IP-100,2013-11-15 01:22:00,
2013-11-14 17:27:00,31.5,32.0,25.65,North,360,0.0,4.0,100,0.00,,,0.00,Rainwise IP-100,2013-11-15 01:27:00,
2013-11-14 17:32:00,31.5,32.0,25.65,North,360,0.0,3.0,100,0.00,,,0.00,Rainwise IP-100,2013-11-15 01:32:00,
2013-11-14 17:37:00,31.5,32.0,25.64,North,360,1.2,3.0,100,0.00,,,0.00,Rainwise IP-100,2013-11-15 01:37:00,
2013-11-14 17:42:00,31.5,32.0,25.64,North,360,0.0,3.0,100,0.00,,,0.00,Rainwise IP-100,2013-11-15 01:42:00,
2013-11-14 17:47:00,31.5,32.0,25.64,North,360,1.4,3.0,100,0.00,,,0.00,Rainwise IP-100,2013-11-15 01:47:00,
2013-11-14 17:52:00,31.6,32.0,25.64,North,360,0.0,2.0,100,0.00,,,0.00,Rainwise IP-100,2013-11-15 01:52:00,
2013-11-14 17:57:00,31.5,32.0,25.64,North,360,0.0,1.0,100,0.00,,,0.00,Rainwise IP-100,2013-11-15 01:57:00,
2013-11-14 18:02:00,31.5,32.0,25.64,North,360,0.0,3.0,100,0.00,,,0.00,Rainwise IP-100,2013-11-15 02:02:00,
2013-11-14 18:07:00,31.6,32.0,25.64,North,360,3.0,3.0,100,0.00,,,0.00,Rainwise IP-100,2013-11-15 02:07:00,
2013-11-14 18:12:00,31.6,32.0,25.64,North,360,1.4,3.0,100,0.00,,,0.00,Rainwise IP-100,2013-11-15 02:12:00,
2013-11-14 18:17:00,31.6,32.0,25.64,North,360,2.1,4.0,100,0.00,,,0.00,Rainwise IP-100,2013-11-15 02:17:00,
2013-11-14 18:22:00,31.6,32.0,25.64,North,360,2.6,4.0,100,0.00,,,0.00,Rainwise IP-100,2013-11-15 02:22:00,
2013-11-14 18:27:00,31.5,32.0,25.64,North,360,1.2,7.0,100,0.00,,,0.00,Rainwise IP-100,2013-11-15 02:27:00,
2013-11-14 18:32:00,31.4,31.0,25.64,North,360,2.6,5.0,100,0.00,,,0.00,Rainwise IP-100,2013-11-15 02:32:00,
2013-11-14 18:37:00,31.4,31.0,25.63,North,360,3.5,6.0,100,0.00,,,0.00,Rainwise IP-100,2013-11-15 02:37:00,
2013-11-14 18:42:00,31.3,31.0,25.63,North,360,3.3,5.0,100,0.00,,,0.00,Rainwise IP-100,2013-11-15 02:42:00,
2013-11-14 18:47:00,31.3,31.0,25.63,North,360,4.4,6.0,100,0.00,,,0.00,Rainwise IP-100,2013-11-15 02:47:00,
2013-11-14 18:52:00,31.3,31.0,25.63,North,360,1.4,7.0,100,0.00,,,0.00,Rainwise IP-100,2013-11-15 02:52:00,
2013-11-14 18:57:00,31.2,31.0,25.63,North,360,4.9,6.0,100,0.00,,,0.00,Rainwise IP-100,2013-11-15 02:57:00,
2013-11-14 19:02:00,31.2,31.0,25.63,North,360,6.1,6.1,100,0.00,,,0.00,Rainwise IP-100,2013-11-15 03:02:00,
2013-11-14 19:07:00,31.1,31.0,25.63,North,360,2.3,7.0,100,0.00,,,0.00,Rainwise IP-100,2013-11-15 03:07:00,
2013-11-14 19:12:00,31.1,31.0,25.63,North,360,4.2,4.2,100,0.00,,,0.00,Rainwise IP-100,2013-11-15 03:12:00,
2013-11-14 19:17:00,31.1,31.0,25.63,North,360,2.1,5.0,100,0.00,,,0.00,Rainwise IP-100,2013-11-15 03:17:00,
2013-11-14 19:22:00,31.1,31.0,25.63,North,360,0.0,8.0,100,0.00,,,0.00,Rainwise IP-100,2013-11-15 03:22:00,
2013-11-14 19:27:00,31.1,31.0,25.63,North,360,0.0,7.0,100,0.00,,,0.00,Rainwise IP-100,2013-11-15 03:27:00,
2013-11-14 19:32:00,31.1,31.0,25.63,North,360,0.0,6.0,100,0.00,,,0.00,Rainwise IP-100,2013-11-15 03:32:00,
2013-11-14 19:37:00,31.1,31.0,25.63,North,360,3.7,6.0,100,0.00,,,0.00,Rainwise IP-100,2013-11-15 03:37:00,
2013-11-14 19:42:00,31.1,31.0,25.63,North,360,1.9,5.0,100,0.00,,,0.00,Rainwise IP-100,2013-11-15 03:42:00,
2013-11-14 19:47:00,31.1,31.0,25.63,North,360,2.6,5.0,100,0.00,,,0.00,Rainwise IP-100,2013-11-15 03:47:00,
2013-11-14 19:52:00,31.1,31.0,25.63,North,360,2.1,5.0,100,0.00,,,0.00,Rainwise IP-100,2013-11-15 03:52:00,
2013-11-14 19:57:00,31.1,31.0,25.62,North,360,3.3,7.0,100,0.00,,,0.00,Rainwise IP-100,2013-11-15 03:57:00,
2013-11-14 20:02:00,31.1,31.0,25.63,North,360,3.7,6.0,100,0.00,,,0.00,Rainwise IP-100,2013-11-15 04:02:00,
2013-11-14 20:07:00,31.1,31.0,25.63,North,360,2.8,8.0,100,0.00,,,0.00,Rainwise IP-100,2013-11-15 04:07:00,
2013-11-14 20:12:00,31.1,31.0,25.63,North,360,3.5,8.0,100,0.00,,,0.00,Rainwise IP-100,2013-11-15 04:12:00,
2013-11-14 20:17:00,31.0,31.0,25.63,North,360,3.0,5.0,100,0.00,,,0.00,Rainwise IP-100,2013-11-15 04:17:00,
2013-11-14 20:22:00,31.0,31.0,25.63,North,360,0.0,6.0,100,0.00,,,0.00,Rainwise IP-100,2013-11-15 04:22:00,
2013-11-14 20:27:00,31.1,31.0,25.63,North,360,3.0,8.0,100,0.00,,,0.00,Rainwise IP-100,2013-11-15 04:27:00,
2013-11-14 20:32:00,31.0,31.0,25.63,North,360,2.6,6.0,100,0.00,,,0.00,Rainwise IP-100,2013-11-15 04:32:00,
2013-11-14 20:37:00,31.0,31.0,25.63,North,360,2.3,5.0,100,0.00,,,0.00,Rainwise IP-100,2013-11-15 04:37:00,
2013-11-14 20:42:00,31.0,31.0,25.62,North,360,6.1,9.0,100,0.00,,,0.00,Rainwise IP-100,2013-11-15 04:42:00,
2013-11-14 20:47:00,31.0,31.0,25.63,North,360,3.0,7.0,100,0.00,,,0.00,Rainwise IP-100,2013-11-15 04:47:00,
2013-11-14 20:52:00,31.0,31.0,25.63,North,360,4.0,5.0,100,0.00,,,0.00,Rainwise IP-100,2013-11-15 04:52:00,
2013-11-14 20:57:00,31.0,31.0,25.63,North,360,4.0,9.0,100,0.00,,,0.00,Rainwise IP-100,2013-11-15 04:57:00,
2013-11-14 21:01:00,31.0,31.0,25.63,North,360,0.0,9.0,100,0.00,,,0.00,Rainwise IP-100,2013-11-15 05:01:00,
2013-11-14 21:02:00,31.0,31.0,25.63,North,360,5.6,9.0,100,0.00,,,0.00,Rainwise IP-100,2013-11-15 05:02:00,
2013-11-14 21:07:00,30.9,31.0,25.63,North,360,2.8,6.0,100,0.00,,,0.00,Rainwise IP-100,2013-11-15 05:07:00,
2013-11-14 21:12:00,30.9,31.0,25.63,North,360,1.9,9.0,100,0.00,,,0.00,Rainwise IP-100,2013-11-15 05:12:00,
2013-11-14 21:17:00,30.8,31.0,25.62,North,360,3.5,7.0,100,0.00,,,0.00,Rainwise IP-100,2013-11-15 05:17:00,
2013-11-14 21:22:00,30.8,31.0,25.63,North,360,2.3,4.0,100,0.00,,,0.00,Rainwise IP-100,2013-11-15 05:22:00,
2013-11-14 21:27:00,30.8,31.0,25.63,North,360,0.0,5.0,100,0.00,,,0.00,Rainwise IP-100,2013-11-15 05:27:00,
2013-11-14 21:32:00,30.8,31.0,25.62,North,360,4.4,5.0,100,0.00,,,0.00,Rainwise IP-100,2013-11-15 05:32:00,
2013-11-14 21:37:00,30.7,31.0,25.62,North,360,2.1,5.0,100,0.00,,,0.00,Rainwise IP-100,2013-11-15 05:37:00,
2013-11-14 21:42:00,30.8,31.0,25.62,North,360,3.3,5.0,100,0.00,,,0.00,Rainwise IP-100,2013-11-15 05:42:00,
2013-11-14 21:47:00,30.8,31.0,25.62,North,360,2.1,5.0,100,0.00,,,0.00,Rainwise IP-100,2013-11-15 05:47:00,
2013-11-14 21:52:00,30.7,31.0,25.62,North,360,1.4,5.0,100,0.00,,,0.00,Rainwise IP-100,2013-11-15 05:52:00,
2013-11-14 21:57:00,30.7,31.0,25.61,North,360,2.6,4.0,100,0.00,,,0.00,Rainwise IP-100,2013-11-15 05:57:00,
2013-11-14 22:02:00,30.7,31.0,25.62,North,360,0.0,3.0,100,0.00,,,0.00,Rainwise IP-100,2013-11-15 06:02:00,
2013-11-14 22:07:00,30.6,31.0,25.61,North,360,1.9,4.0,100,0.00,,,0.00,Rainwise IP-100,2013-11-15 06:07:00,
2013-11-14 22:12:00,30.5,31.0,25.61,North,360,0.0,1.0,100,0.00,,,0.00,Rainwise IP-100,2013-11-15 06:12:00,
2013-11-14 22:17:00,30.4,31.0,25.61,North,360,0.0,3.0,100,0.00,,,0.00,Rainwise IP-100,2013-11-15 06:17:00,
2013-11-14 22:22:00,30.2,31.0,25.61,North,360,0.0,3.0,100,0.00,,,0.00,Rainwise IP-100,2013-11-15 06:22:00,
2013-11-14 22:27:00,30.1,31.0,25.61,North,360,3.5,3.5,100,0.00,,,0.00,Rainwise IP-100,2013-11-15 06:27:00,
2013-11-14 22:32:00,30.0,31.0,25.61,North,360,0.0,3.0,100,0.00,,,0.00,Rainwise IP-100,2013-11-15 06:32:00,
2013-11-14 22:37:00,30.0,31.0,25.61,North,360,1.9,4.0,100,0.00,,,0.00,Rainwise IP-100,2013-11-15 06:37:00,
2013-11-14 22:42:00,30.1,31.0,25.61,North,360,2.3,4.0,100,0.00,,,0.00,Rainwise IP-100,2013-11-15 06:42:00,
2013-11-14 22:47:00,30.1,31.0,25.61,North,360,0.0,7.0,100,0.00,,,0.00,Rainwise IP-100,2013-11-15 06:47:00,
2013-11-14 22:52:00,30.2,31.0,25.61,North,360,3.3,3.3,100,0.00,,,0.00,Rainwise IP-100,2013-11-15 06:52:00,
2013-11-14 22:57:00,30.3,31.0,25.62,North,360,0.0,7.0,100,0.00,,,0.00,Rainwise IP-100,2013-11-15 06:57:00,
2013-11-14 23:02:00,30.3,31.0,25.61,North,360,2.3,7.0,100,0.00,,,0.00,Rainwise IP-100,2013-11-15 07:02:00,
2013-11-14 23:07:00,30.2,31.0,25.61,North,360,0.0,8.0,100,0.00,,,0.00,Rainwise IP-100,2013-11-15 07:07:00,
2013-11-14 23:12:00,30.1,31.0,25.61,North,360,0.0,7.0,100,0.00,,,0.00,Rainwise IP-100,2013-11-15 07:12:00,
2013-11-14 23:17:00,30.1,31.0,25.62,North,360,5.1,9.0,100,0.00,,,0.00,Rainwise IP-100,2013-11-15 07:17:00,
2013-11-14 23:22:00,30.0,31.0,25.61,North,360,5.8,11.0,100,0.00,,,0.00,Rainwise IP-100,2013-11-15 07:22:00,
2013-11-14 23:27:00,29.9,31.0,25.61,North,360,4.9,9.0,100,0.00,,,0.00,Rainwise IP-100,2013-11-15 07:27:00,
2013-11-14 23:32:00,29.9,31.0,25.61,North,360,5.6,7.0,100,0.00,,,0.00,Rainwise IP-100,2013-11-15 07:32:00,
2013-11-14 23:37:00,29.8,31.0,25.61,North,360,6.5,8.0,100,0.00,,,0.00,Rainwise IP-100,2013-11-15 07:37:00,
2013-11-14 23:42:00,29.7,31.0,25.62,North,360,3.0,10.0,100,0.00,,,0.00,Rainwise IP-100,2013-11-15 07:42:00,
2013-11-14 23:47:00,29.7,31.0,25.61,North,360,4.4,7.0,100,0.00,,,0.00,Rainwise IP-100,2013-11-15 07:47:00,
2013-11-14 23:52:00,29.7,31.0,25.61,North,360,3.7,8.0,100,0.00,,,0.00,Rainwise IP-100,2013-11-15 07:52:00,
2013-11-14 23:57:00,29.6,31.0,25.61,North,360,4.2,7.0,100,0.00,,,0.00,Rainwise IP-100,2013-11-15 07:57:00,